Home > Weather > Butte > Past weeks

Flag for USA Past Weather in Butte, Montana, USA — Yesterday and Last 2 Weeks

Now
69 °F

Passing clouds.


Feels Like: 69 °F
Forecast: 49 / 74 °F
Wind: 5 mph from North

Location: Mooney Airport

Current Time: Jun 30, 2016 at 10:28:29 PM

Latest Report: Jun 30, 2016 at 9:53 PM


Visibility: 10 mi

Pressure: 29.94 "Hg (24.61 "Hg at 1685m altitude)

Humidity: 39%

Dew Point: 43 °F

Location of ButteLocation

Past Weather in Butte — Graph

°F

Butte Temperature Yesterday

Maximum temperature yesterday: 86 °F (at 5:53 PM)
Minimum temperature yesterday: 50 °F (at 5:53 AM)
Average temperature yesterday: 70 °F

High & Low Weather Summary for the Past Weeks

 TemperatureHumidityPressure
High87 °F (Jun 28, 4:53 PM)96% (Jun 15, 10:53 PM)30.32 "Hg (Jun 15, 10:53 PM)
Low30 °F (Jun 17, 5:53 AM)8% (Jun 22, 5:53 PM)29.73 "Hg (Jun 15, 11:53 PM)
Average61 °F42%30.04 "Hg
* Reported Jun 15 8:53 PM — Jun 30 8:53 PM, Butte, Weather by CustomWeather, © 2016

Note: Actual official high and low records may vary slightly from our data, if they occured in-between our weather recording intervals... More about our weather records

Advertising

Butte Weather History for the Previous 24 Hours

Scroll right to see more
 ConditionsComfort  
Time TempWeatherWind HumidityBarometerVisibility
8:53 PM
Thu, Jun 30
72 °FThundershowers. Mostly cloudy.5 mph34%29.94 "Hg10 mi
7:53 PM76 °FScattered clouds.9 mph31%29.90 "Hg10 mi
6:53 PM79 °FPartly sunny.9 mph27%29.89 "Hg10 mi
5:53 PM81 °FSunny.5 mph21%29.90 "Hg10 mi
4:53 PM82 °FPassing clouds.10 mph19%29.90 "Hg10 mi
3:53 PM83 °FPassing clouds.3 mph19%29.91 "Hg10 mi
2:53 PM83 °FSunny.10 mph20%29.93 "Hg10 mi
1:53 PM79 °FSunny.No wind24%29.98 "Hg10 mi
12:53 PM77 °FSunny.N/A26%30.01 "Hg10 mi
11:53 AM74 °FSunny.3 mph33%30.02 "Hg10 mi
10:53 AM72 °FSunny.14 mph38%30.05 "Hg10 mi
9:53 AM69 °FScattered clouds.6 mph44%30.03 "Hg10 mi
8:53 AM66 °FSunny.6 mph54%30.04 "Hg10 mi
7:53 AM63 °FSunny.5 mph60%30.04 "Hg10 mi
6:53 AM62 °FPartly sunny.No wind58%30.03 "Hg10 mi
5:53 AM60 °FPassing clouds.5 mph67%30.02 "Hg10 mi
4:53 AM61 °FPassing clouds.14 mph60%30.00 "Hg10 mi
3:53 AM61 °FThundershowers. Overcast.9 mph72%30.03 "Hg10 mi
2:53 AM63 °FThunderstorms. Overcast.6 mph54%30.02 "Hg10 mi
1:53 AM61 °FPassing clouds.7 mph52%30.00 "Hg10 mi
12:53 AM62 °FPassing clouds.3 mph54%30.00 "Hg10 mi
11:53 PM
Wed, Jun 29
69 °FPassing clouds.3 mph42%30.01 "Hg10 mi
10:53 PM71 °FPassing clouds.7 mph36%30.02 "Hg10 mi
Weather by CustomWeather, © 2016

See weather overviewHow to use our weather pages